Regional Weather Roundup
Issued by NWS

Home | Current Version | Previous Version | Graphics & Text | Print | Product List | Glossary On
Versions: 1 2 3 4 5 6 7 8 9 10 11 12 13 14 15 16 17 18 19 20 21 22 23 24 25 26 27 28 29 30 31 32 33 34 35 36 37 38 39 40 41 42 43 44 45 46 47 48 49 50
000
ASUS43 KFSD 291510
RWRSD

WEATHER ROUNDUP FOR SOUTH DAKOTA
NATIONAL WEATHER SERVICE SIOUX FALLS SD
900 AM CST THU JAN 29 2015

NOTE: "FAIR" INDICATES FEW OR NO CLOUDS BELOW 12,000 FEET WITH NO
SIGNIFICANT WEATHER AND/OR OBSTRUCTIONS TO VISIBILITY.


SDZ001>005-009-010-012>017-291600-
NORTHWEST AND NORTH CENTRAL SOUTH DAKOTA

CITY           SKY/WX    TMP DP  RH WIND       PRES   REMARKS
BUFFALO          N/A     24  21  88 NW9       30.37R WCI  14
FAITH            N/A     25  20  81 NW10      30.45R WCI  15
MOBRIDGE       CLOUDY    30  21  69 N12       30.41R WCI  20
$$

SDZ012>016-024>037-041>051-057-063-072>074-291600-
SOUTHWEST AND SOUTH CENTRAL SOUTH DAKOTA

CITY           SKY/WX    TMP DP  RH WIND       PRES   REMARKS
RAPID CTY ARPT CLEAR     23  19  85 CALM      30.45R
PIERRE         MOCLDY    32  26  78 N9        30.44R WCI  24
CUSTER         CLEAR     28 -11  18 NW5       30.38R WCI  23
ELLSWORTH AFB  CLEAR     21  17  86 W3        30.44R
PHILIP         PTCLDY    29  22  75 NW9       30.48R WCI  20
PINE RIDGE     CLEAR     23  20  88 SW5       30.48R WCI  17
WINNER         CLOUDY    37  24  59 NW22G30   30.42R
$$

SDZ004>011-016>023-039-040-291600-
NORTHEAST SOUTH DAKOTA

CITY           SKY/WX    TMP DP  RH WIND       PRES   REMARKS
ABERDEEN       CLOUDY    29  22  75 N17G28    30.41R WCI  17
WATERTOWN      CLOUDY    27  22  81 NW22G28   30.32R WCI  13
SISSETON         N/A     25  22  88 N16       30.36R WCI  12
$$

SDZ017-020-022-023-036>040-048>070-291600-
SOUTHEAST SOUTH DAKOTA

CITY           SKY/WX    TMP DP  RH WIND       PRES   REMARKS
SIOUX FALLS    CLOUDY    31  25  78 NW21G26   30.33R WCI  18
HURON          CLOUDY    32  26  78 N12       30.39R WCI  23
CHAMBERLAIN    CLOUDY    33  27  77 NW16      30.42R WCI  23
MITCHELL       CLOUDY    33  28  81 NW13      30.40R WCI  24
YANKTON        CLOUDY    34  27  75 NW20G25   30.39R WCI  22
$$

ABBREVIATIONS USED IN REMARKS
   TC - TEMPERATURE IN CELSIUS
  WCI - WIND CHILL INDEX
   HX - HEAT INDEX
  VSB - VISIBILITY




USA.gov is the U.S. government's official web portal to all federal, state and local government web resources and services.